RH
8 7 7 7 7 9 11 12 13 14 15 14 15 15 15 16 16 17 20 22 24 24 25 26 28 30 30 32 31 31 31 32 32 32 33 33 33 34 33 32 31 30 29 28 27 28 27 26 24 24 25 28 29 29 29 29 29 29 29 31 32 32 32 32 32 30 29 29 29 29 27 27 26 24 23 21 20 19 19 20 18 17 29 43 50 50
8 8 9 9 10 12 13 14 14 16 19 22 23 24 26 26 26 27 28 28 28 29 30 27 25 24 21 20 21 20 19 18 18 18 18 18 19 22 24 27 31 32 33 32 31 30 29 30 29 28 27 27 28 29 30 31 32 32 32 33 34 36 36 37 37 34 32 32 33 34 33 32 32 31 28 25 24 22 21 21 22 20 18 18 22 26
10 10 11 11 12 14 17 20 24 27 29 30 29 27 25 22 21 20 18 14 13 13 15 12 8 8 6 5 6 5 5 5 4 4 4 5 5 6 7 9 13 17 22 27 31 33 34 33 33 32 31 30 29 29 30 31 31 32 33 35 36 38 39 40 41 41 38 35 35 37 39 39 38 37 35 32 29 27 26 23 21 21 20 21 17 15
11 12 13 16 19 23 27 29 30 28 22 17 14 11 10 8 7 7 6 4 4 4 5 4 3 4 3 3 3 3 3 3 3 3 3 3 3 3 3 3 3 4 5 8 13 19 24 28 32 34 35 34 33 33 32 32 33 34 34 35 36 37 39 40 42 44 43 41 39 39 41 44 44 44 43 40 35 31 30 28 26 23 21 23 22 20
15 17 20 23 24 24 23 20 16 12 7 4 4 4 4 4 4 5 5 5 5 4 4 5 5 4 4 5 5 5 5 5 4 4 4 4 4 4 4 5 5 5 5 4 4 5 7 11 16 22 28 32 35 36 36 36 36 36 37 38 38 38 39 40 42 45 46 46 45 42 42 45 47 48 48 47 44 39 34 30 28 27 25 24 23 23
21 22 22 19 15 11 8 6 4 4 3 3 4 5 5 6 6 6 7 7 6 5 5 6 6 5 6 7 6 6 7 6 6 6 6 5 5 5 5 5 6 6 6 7 7 6 6 5 5 7 11 16 22 28 33 36 38 38 38 38 40 42 42 42 43 44 46 49 50 49 47 47 49 50 51 51 51 47 42 36 31 29 28 27 26 26
21 18 14 9 5 4 4 3 4 5 5 5 6 6 7 7 6 6 6 6 6 6 4 5 6 5 5 6 6 7 7 7 8 7 7 8 8 8 8 8 8 8 9 9 8 8 8 8 8 7 6 6 8 11 16 22 28 34 39 40 39 40 43 45 46 46 46 48 50 51 52 52 52 53 53 53 54 53 50 42 35 32 31 31 30 28
14 9 5 4 3 4 5 6 7 7 6 7 6 6 6 6 5 6 6 5 5 5 5 4 4 5 5 5 5 5 5 5 5 6 6 6 7 7 7 7 7 8 8 9 10 10 11 12 11 10 11 9 8 8 7 9 12 18 27 36 41 42 42 45 48 50 50 49 49 50 51 52 52 53 54 54 54 54 54 51 44 37 34 34 34 33
7 4 3 5 5 6 7 7 7 7 7 6 6 6 6 5 6 5 5 5 5 5 4 3 4 5 4 4 5 5 5 6 5 5 6 5 6 7 7 8 8 9 10 11 15 21 27 30 26 18 15 14 12 11 10 9 8 9 12 20 32 42 46 47 50 53 55 55 54 53 52 52 52 51 51 52 54 55 54 53 50 45 40 38 36 36
4 5 6 7 7 8 8 7 7 6 6 6 6 6 5 5 5 4 5 4 4 5 3 4 4 3 7 10 8 6 5 4 5 4 4 5 5 3 3 4 5 8 10 15 30 48 59 63 58 44 31 25 20 16 14 13 13 12 12 13 21 36 48 54 56 58 61 63 64 63 60 57 55 54 53 52 52 54 56 55 54 50 46 43 40 40
6 7 8 8 8 8 7 7 7 6 6 6 5 5 5 5 4 4 5 3 5 5 3 5 3 9 33 47 38 34 36 34 30 21 15 16 19 21 27 35 38 32 28 37 58 76 87 93 93 83 65 51 40 30 23 19 18 17 17 18 21 31 46 59 65 68 70 71 73 74 73 70 66 62 59 58 57 56 56 56 56 54 51 48 46 44
8 8 8 8 7 7 6 6 6 6 6 5 5 5 5 5 4 5 4 4 5 3 3 6 3 22 64 86 80 76 73 64 52 36 25 25 30 41 57 77 89 81 66 67 76 80 84 89 94 94 86 76 68 57 47 37 31 26 23 22 23 28 39 55 67 73 76 78 79 81 81 81 80 77 72 67 64 62 61 60 58 56 55 54 52 52
8 8 8 7 7 7 7 6 6 6 5 5 5 5 5 5 5 5 4 4 4 3 6 4 7 43 78 82 82 85 79 73 67 58 53 50 51 56 60 65 76 81 75 71 72 72 74 79 86 93 95 93 89 85 82 72 58 46 36 28 25 25 29 40 57 69 74 77 79 81 83 85 85 85 85 83 79 74 68 66 64 62 62 60 59 58
8 8 7 7 7 7 6 6 6 6 5 6 6 5 6 6 5 6 5 4 5 5 5 4 23 71 95 83 84 92 92 96 96 93 92 90 91 92 89 83 82 87 89 87 90 92 92 94 98 101 101 99 96 95 99 96 86 73 61 48 37 30 26 26 35 48 58 66 70 71 74 80 84 86 87 89 91 90 86 80 75 71 69 69 68 67
8 8 8 7 7 7 7 7 6 6 6 6 6 6 6 6 6 8 5 7 21 30 34 46 69 95 103 97 99 101 100 102 102 102 102 101 102 101 100 100 98 99 101 100 101 102 101 101 102 102 102 101 100 99 100 102 99 96 90 81 66 50 39 32 28 29 33 40 47 52 56 62 69 76 84 89 91 93 95 95 93 89 84 80 78 77
9 8 8 7 7 7 6 7 7 7 7 6 6 6 5 6 5 8 6 10 44 74 81 91 101 102 101 101 101 101 100 99 98 98 98 99 99 98 98 99 99 100 101 100 100 100 100 100 100 101 100 100 101 101 101 102 101 101 101 101 95 79 62 50 42 38 35 31 27 28 35 45 51 56 65 78 88 92 94 96 97 99 98 96 92 89
9 8 8 7 7 7 7 8 7 7 7 6 7 6 5 7 5 8 8 7 41 90 104 102 101 99 99 101 101 102 100 98 99 98 99 100 100 99 100 100 100 100 100 99 100 100 100 100 99 100 100 99 99 98 99 100 100 100 100 101 103 99 89 76 61 51 51 54 47 34 24 25 34 43 50 59 71 83 90 95 97 98 99 100 101 101
9 8 9 8 7 8 7 8 7 7 8 6 7 7 6 7 5 7 10 6 24 63 84 92 101 102 99 99 100 100 97 98 101 100 100 101 100 100 101 100 101 101 100 100 99 101 103 103 101 101 100 100 99 98 99 99 99 99 99 99 100 100 102 99 89 72 59 59 65 64 52 35 25 26 35 45 57 69 78 85 93 97 98 98 99 100
10 9 9 8 8 8 8 8 8 7 7 6 6 7 6 7 7 7 10 15 26 42 51 62 80 94 100 100 101 100 98 97 97 97 100 101 99 100 99 98 97 96 97 98 97 99 100 99 96 92 90 89 91 93 95 97 98 98 99 100 100 99 100 100 102 100 86 68 60 62 65 62 51 37 28 28 37 50 63 73 83 91 96 97 97 96
11 10 9 9 9 9 8 8 8 7 7 7 6 7 7 6 8 8 10 20 31 35 35 36 42 55 65 68 69 69 71 74 77 82 89 94 95 94 90 88 86 85 86 87 88 88 86 82 78 74 70 69 70 74 80 84 87 89 92 95 96 97 99 98 99 103 99 85 71 62 57 57 59 58 51 40 31 30 38 52 67 80 89 95 98 97
11 11 10 10 9 9 10 9 9 8 7 7 7 7 7 7 9 10 12 19 25 25 29 30 27 29 31 30 32 33 35 42 48 51 55 60 64 64 63 63 62 62 63 63 64 63 62 61 58 54 50 49 51 55 59 64 67 70 74 78 80 81 83 85 87 89 87 80 72 67 62 54 49 50 54 55 50 41 33 33 41 53 67 81 92 98
11 11 11 10 10 10 10 9 9 8 8 8 8 8 8 9 12 17 20 23 26 26 28 31 29 28 25 21 22 23 23 24 26 27 27 29 31 33 35 38 38 39 39 39 38 39 40 41 40 39 39 39 42 44 46 47 50 53 55 56 58 60 62 63 65 68 69 67 61 57 57 56 52 47 44 45 49 50 48 42 36 34 38 51 66 80
12 12 11 11 11 11 11 10 9 9 8 9 9 8 9 10 15 27 36 38 35 32 32 32 32 30 27 24 22 20 20 20 18 17 16 16 18 20 21 22 23 23 23 23 24 24 25 25 25 27 28 28 29 29 30 31 32 35 37 37 39 41 43 45 46 47 48 50 50 50 49 51 54 56 55 52 49 47 49 50 47 40 33 32 38 49
13 13 12 12 12 11 11 10 9 9 9 9 9 9 10 13 19 31 45 51 48 44 42 38 35 34 31 28 24 21 20 19 18 17 17 16 16 16 16 16 17 18 19 20 21 21 21 22 22 22 21 20 19 19 19 19 19 20 20 21 22 24 25 26 28 29 31 32 34 35 37 41 46 53 58 60 60 58 55 54 55 53 47 39 33 34
14 13 14 14 13 12 11 10 9 9 9 9 10 10 11 13 18 26 40 52 55 54 53 48 42 39 37 32 27 24 21 20 19 19 20 19 17 17 18 19 20 22 23 24 25 25 25 24 23 22 21 21 21 21 21 20 19 18 17 16 15 15 15 16 16 16 16 18 19 20 23 26 32 40 47 50 52 55 56 56 57 59 58 54 48 41
14 14 15 15 14 14 13 13 13 11 11 11 11 12 12 13 15 21 33 51 61 61 61 61 54 45 40 36 31 27 24 22 22 22 21 21 20 21 21 22 24 26 27 27 27 27 26 25 24 25 26 27 27 27 28 27 26 24 22 20 19 17 16 15 15 15 14 13 12 12 13 15 18 23 29 33 35 37 40 43 46 49 52 54 55 52
15 15 16 16 16 15 15 16 15 14 13 12 13 13 13 13 15 18 28 48 65 66 61 62 61 51 44 41 36 31 28 24 21 20 19 19 20 21 22 25 28 29 30 30 31 31 30 29 29 31 32 33 33 34 35 35 34 32 29 26 24 22 21 19 18 17 16 16 15 14 13 11 11 12 13 17 20 23 27 30 34 38 40 42 46 50
14 15 15 16 17 16 15 16 15 14 14 14 14 14 14 14 14 16 22 38 60 70 62 56 59 57 51 47 43 37 31 26 22 21 20 20 20 21 24 29 32 33 34 35 36 36 34 33 34 37 38 39 39 41 43 44 43 41 39 36 32 29 25 22 20 18 18 18 17 17 16 15 13 12 11 10 11 14 17 22 27 32 35 36 37 40
14 15 15 16 17 16 15 16 15 14 15 15 15 14 15 16 14 15 19 25 42 62 61 54 56 61 58 53 47 42 36 28 24 22 20 21 21 22 26 31 33 34 34 36 36 36 37 38 40 42 43 44 46 49 52 54 55 52 49 46 43 40 36 33 28 25 22 20 19 18 17 16 15 14 13 12 11 10 11 13 17 24 29 33 34 35
15 16 16 16 17 16 16 16 16 16 16 15 16 16 16 17 16 16 18 19 25 38 47 50 54 58 60 57 51 46 41 34 28 25 23 23 23 23 25 27 29 32 36 40 41 42 43 42 42 45 47 48 52 55 58 61 62 60 58 56 54 52 53 52 47 42 37 32 29 26 23 20 18 16 14 13 12 12 11 10 10 12 18 25 30 34
15 17 17 16 16 17 17 17 17 17 17 17 17 17 17 18 18 16 18 20 20 21 29 38 43 45 50 53 51 48 45 39 33 28 24 24 24 23 24 24 25 30 38 44 48 51 52 48 44 47 51 53 56 60 63 65 65 64 62 62 63 64 67 69 66 61 57 52 45 40 36 31 26 22 18 15 13 12 11 11 10 9 10 13 19 27
16 16 17 16 16 18 18 18 18 18 18 18 18 19 20 20 20 19 20 22 21 19 21 28 34 37 41 43 43 45 47 44 40 34 28 25 24 24 26 28 28 32 38 45 50 52 53 52 50 51 55 58 59 62 66 68 67 67 67 68 71 74 77 79 78 74 70 66 61 54 47 41 36 32 27 22 19 15 12 10 10 10 10 9 10 14
16 16 18 17 17 19 19 20 20 19 19 20 21 22 22 22 22 21 23 25 23 22 23 23 27 33 38 39 39 40 43 45 44 40 34 29 28 28 31 32 32 34 40 46 52 54 53 52 53 54 57 60 61 63 67 70 69 69 71 73 78 82 84 84 84 84 81 78 74 69 63 57 50 43 38 34 29 23 18 14 11 10 10 10 9 9
17 17 19 20 19 20 21 21 21 22 22 22 24 25 24 25 26 25 26 28 25 23 24 23 23 29 35 37 36 37 42 48 51 48 41 36 33 31 31 33 33 33 36 43 51 57 58 56 55 58 61 63 66 67 68 71 73 73 75 78 81 84 86 86 86 87 87 85 82 81 80 76 66 57 52 49 43 35 28 22 17 13 10 9 10 10
18 19 20 22 22 22 23 23 22 24 26 26 26 28 29 30 31 29 29 31 28 23 22 23 23 27 31 32 34 38 44 51 57 56 49 44 40 35 32 33 33 34 35 37 43 51 59 60 59 61 65 68 69 70 70 73 75 77 81 85 86 85 86 88 89 90 90 88 87 87 88 87 83 76 70 64 57 49 42 35 28 21 17 14 11 9
20 21 21 24 25 24 24 26 26 25 27 28 28 31 34 36 36 34 33 33 30 25 24 24 24 27 30 33 35 38 41 46 55 63 61 55 51 44 38 35 35 36 37 37 38 44 53 62 64 64 68 72 73 72 72 74 78 81 85 90 92 91 89 89 92 96 98 98 96 93 93 94 93 90 87 83 75 66 58 50 42 36 30 23 16 11
22 24 24 27 29 28 27 29 28 26 26 29 31 34 38 40 41 41 38 36 34 29 26 26 26 26 30 34 36 39 39 39 48 62 67 65 62 56 47 40 38 39 40 40 39 39 45 57 68 72 72 74 77 77 74 74 78 83 88 92 94 95 96 94 94 97 102 104 104 101 98 97 97 97 98 98 95 88 79 68 59 53 46 35 25 19
25 28 29 31 32 31 31 32 31 30 30 32 35 39 42 44 46 46 43 40 38 34 30 29 29 28 30 34 37 41 43 39 41 53 61 65 69 67 57 48 43 41 42 43 42 40 39 45 58 70 75 77 80 83 81 79 81 85 88 90 92 96 98 98 97 97 99 104 106 104 100 98 99 100 101 101 101 100 96 86 75 65 56 46 38 33
28 32 33 34 35 34 35 37 38 40 39 36 38 43 47 49 51 50 46 44 42 39 34 31 31 31 31 35 39 44 48 44 38 43 50 56 63 68 64 56 49 43 42 44 45 44 41 39 45 60 75 82 83 85 85 83 85 88 90 91 92 96 98 100 101 100 99 102 105 103 99 98 98 99 100 100 100 101 101 99 93 83 72 61 53 48
31 34 34 35 37 39 39 39 41 44 43 38 39 46 50 52 56 55 51 50 48 44 40 36 35 34 34 36 40 46 54 54 47 43 46 48 54 62 65 60 54 47 42 42 44 45 44 42 41 49 66 76 78 79 80 80 83 89 93 94 95 97 97 98 100 101 99 101 104 104 100 97 96 99 101 100 100 100 100 102 102 99 94 86 76 67
31 34 36 37 39 41 43 43 42 43 43 38 39 46 50 53 57 58 56 56 54 50 46 42 38 36 36 37 41 47 55 60 56 49 45 42 43 49 54 55 53 50 45 43 43 43 43 44 43 43 51 63 72 76 75 75 80 89 96 97 97 96 97 95 95 97 98 100 105 107 103 95 94 98 100 100 100 100 100 100 101 100 101 100 97 91
33 35 39 41 42 44 48 49 47 46 45 41 40 44 48 50 54 56 57 60 60 55 52 48 44 40 39 38 42 48 55 61 61 53 46 41 37 35 38 42 44 46 46 44 44 43 42 42 44 44 46 53 66 77 80 77 80 90 98 100 98 96 96 96 95 95 95 97 104 109 105 96 92 95 99 100 100 100 100 100 100 100 100 100 101 100
40 40 44 47 48 49 52 55 58 57 52 47 43 43 44 44 48 53 57 62 65 62 57 53 50 45 42 40 42 46 53 60 62 57 49 42 35 30 29 31 34 38 41 42 42 43 42 42 44 46 47 49 55 69 81 83 83 90 100 103 101 98 97 99 101 99 94 94 101 109 108 100 93 91 96 100 100 100 100 100 99 100 100 100 100 100
46 48 53 56 56 58 60 61 65 65 59 53 50 47 45 43 46 53 59 64 68 67 62 58 55 50 46 44 43 44 50 58 63 61 54 44 36 30 27 28 31 33 37 39 40 41 42 43 44 46 49 50 51 59 76 86 86 91 101 105 103 100 100 104 108 104 96 93 98 105 107 104 98 93 94 99 100 99 100 100 100 100 100 100 100 100
50 52 57 60 61 63 64 62 62 66 64 60 57 55 50 46 47 52 58 63 68 70 67 63 60 56 51 48 46 45 48 55 61 62 59 50 40 33 29 29 31 32 34 37 39 41 42 43 45 46 48 52 51 53 68 84 91 94 100 105 106 105 104 106 110 108 100 96 99 102 102 102 102 99 96 98 101 100 99 100 100 100 100 100 100 100
55 56 59 64 65 64 64 63 63 68 69 66 63 62 56 50 48 49 50 55 63 70 73 69 65 61 57 53 49 47 47 51 56 60 61 56 46 37 32 30 31 33 34 35 36 38 40 42 45 47 47 50 52 52 58 74 90 98 101 102 105 108 107 106 107 107 102 98 100 103 101 100 103 105 101 97 97 100 100 100 100 100 100 100 100 100
61 62 63 67 71 72 70 68 68 72 76 73 69 68 63 55 50 47 44 46 55 67 75 75 70 66 62 57 53 50 49 50 52 56 61 61 53 42 35 30 29 31 31 32 32 33 35 38 42 46 48 49 51 51 54 62 78 94 105 105 103 105 109 108 106 104 100 98 100 104 104 101 102 106 106 100 96 98 100 100 100 100 100 100 100 100
66 69 69 71 77 80 77 73 73 78 84 84 79 75 70 61 54 48 43 42 48 59 70 75 75 71 66 62 59 54 51 51 52 53 59 62 58 48 38 30 27 27 26 26 26 27 30 32 35 40 45 48 49 50 52 55 61 76 97 109 108 104 106 109 108 103 98 96 98 102 104 103 101 103 105 104 100 99 99 100 100 100 100 100 100 99
74 78 79 78 80 84 83 80 79 79 82 86 86 82 76 68 59 53 47 43 46 52 59 66 72 74 70 66 63 58 53 51 50 51 56 63 62 53 41 30 24 22 20 19 20 22 23 25 26 30 36 42 46 49 51 53 53 59 78 100 109 106 105 108 110 106 99 95 96 100 103 103 101 100 101 102 102 100 97 98 101 102 100 99 101 101
81 86 89 88 86 90 91 88 85 82 80 83 88 87 82 75 66 59 54 49 47 50 52 56 64 71 73 70 66 62 57 53 49 47 54 63 65 57 44 32 23 19 16 16 18 20 20 20 20 22 26 32 39 44 49 53 52 51 61 82 100 106 105 106 109 110 105 99 97 98 102 104 103 101 100 100 102 103 100 96 96 103 105 102 101 103
88 93 98 97 92 93 94 91 90 89 86 85 89 90 87 81 72 65 62 56 51 51 53 54 58 65 70 71 69 65 60 57 52 48 50 57 63 59 47 33 23 17 15 18 21 20 18 16 16 17 18 22 29 37 44 50 53 52 54 68 87 101 104 104 107 111 110 105 101 98 99 103 105 104 103 101 100 104 106 99 93 98 106 106 101 99
Wind_Speed
32 34 34 35 35 36 37 38 38 39 40 41 42 44 45 47 47 47 50 50 50 52 51 53 55 54 55 57 57 58 58 58 58 57 57 57 56 55 55 55 55 55 55 54 54 55 55 56 56 56 57 57 56 56 56 56 56 56 55 55 54 54 53 52 51 51 50 50 49 49 49 49 47 46 47 48 48 48 48 48 49 50 51 53 55 56
33 34 35 36 36 37 38 39 40 41 42 43 44 44 45 47 47 47 49 51 52 53 53 53 55 55 55 58 59 59 59 59 59 59 59 58 58 57 57 56 56 56 56 56 56 57 57 57 57 57 57 58 59 59 58 58 58 58 58 58 57 57 56 55 55 54 54 53 52 51 50 50 49 48 49 50 50 50 50 49 50 51 52 54 56 57
34 34 36 37 38 39 40 41 42 42 44 45 45 46 46 47 48 47 48 50 51 54 54 54 56 57 57 59 60 60 60 60 61 60 60 60 60 60 59 58 58 58 58 58 58 58 58 59 59 59 58 59 59 60 60 61 60 60 60 60 60 60 59 59 58 57 56 56 55 54 53 52 52 51 52 53 53 53 52 51 51 52 53 54 56 57
34 35 37 38 39 40 40 41 42 42 43 44 46 47 48 48 50 50 50 50 51 52 54 55 56 58 58 59 59 60 60 60 61 62 62 62 62 62 61 61 60 59 59 59 59 59 59 60 60 61 61 61 61 61 61 61 61 61 61 61 62 62 62 61 61 60 60 59 58 58 57 55 55 55 54 55 55 55 54 54 54 53 54 54 56 56
36 37 38 39 40 40 41 42 42 43 43 43 45 47 48 48 49 51 52 52 51 50 51 56 58 59 59 58 59 60 60 61 62 63 63 63 63 63 62 62 61 60 60 60 59 59 60 60 61 61 62 63 63 64 64 64 63 63 62 62 62 62 62 63 63 63 63 62 61 61 60 59 58 58 58 57 58 58 57 56 56 55 55 56 56 56
37 37 38 38 39 40 41 42 43 43 43 43 45 46 48 49 50 52 54 56 57 53 52 57 63 65 63 61 63 64 64 65 65 65 65 65 65 65 64 63 62 61 61 60 59 59 59 59 60 61 61 62 63 63 64 65 65 65 65 64 64 63 63 63 64 65 65 65 64 63 63 62 61 61 61 61 60 60 60 58 58 57 57 58 58 57
37 38 38 38 39 41 42 43 43 44 45 45 47 49 50 53 54 55 56 58 61 60 56 57 64 69 67 64 65 66 67 67 67 67 67 66 67 67 66 65 64 62 61 60 59 59 58 59 59 59 60 60 60 61 62 63 64 65 66 66 66 65 64 64 65 66 66 67 66 66 65 65 65 64 65 64 63 63 63 62 61 60 60 60 60 60
37 38 38 39 40 41 43 44 46 48 49 49 51 52 54 55 57 58 59 60 62 64 62 59 61 67 68 66 65 66 67 68 68 68 68 68 69 69 69 68 67 66 64 62 61 59 58 58 58 58 58 58 59 60 60 61 61 62 63 64 65 65 65 65 65 66 67 67 68 68 68 68 68 68 68 67 67 67 67 66 64 63 63 63 62 62
38 38 39 41 42 43 45 47 49 51 52 53 54 55 56 57 59 60 62 63 63 65 66 61 59 66 69 68 67 67 68 68 69 69 69 69 70 70 70 69 68 66 65 63 60 59 56 56 58 58 58 59 59 59 60 60 61 61 61 62 63 64 65 65 64 64 66 67 67 68 68 69 70 71 71 71 70 70 70 70 69 67 66 66 65 65
38 39 41 43 44 45 47 48 50 52 54 56 57 58 59 60 62 63 65 66 66 67 67 62 61 65 67 66 66 67 68 68 69 69 69 69 69 69 69 69 68 67 65 62 59 56 55 55 58 60 60 60 59 59 59 60 60 60 61 61 62 63 64 64 63 62 62 64 65 67 67 69 70 72 73 73 73 73 74 73 73 72 70 69 68 67
38 40 42 44 46 48 49 50 51 53 56 58 61 63 64 64 66 66 67 69 69 71 69 66 65 62 57 57 59 60 61 61 63 64 65 65 65 64 64 63 63 62 61 59 57 55 55 55 57 60 62 61 60 59 59 59 60 60 60 61 62 64 64 65 64 63 62 61 62 64 65 67 68 71 73 74 75 76 76 76 75 75 74 73 71 69
41 44 45 47 49 51 53 53 53 55 58 61 64 67 69 69 70 70 69 70 71 73 70 67 66 59 50 51 54 55 57 58 60 62 62 62 61 60 60 59 58 60 61 60 60 60 61 62 62 64 64 63 61 60 60 60 61 61 61 61 63 64 66 67 67 67 65 63 62 62 63 65 66 67 70 72 74 75 76 77 78 77 76 76 75 73
43 47 49 50 52 54 57 58 58 58 60 63 65 68 71 73 73 73 72 71 73 73 70 67 63 56 53 55 56 57 59 59 58 58 57 56 56 57 59 61 61 63 64 63 64 64 65 65 66 65 64 63 61 60 61 61 62 62 63 64 64 65 66 68 70 71 70 69 67 65 65 65 66 66 67 69 71 73 74 76 77 77 77 77 76 75
42 46 50 52 54 56 58 61 63 63 63 64 65 66 70 72 74 75 75 75 75 73 71 66 58 52 53 56 56 55 55 54 53 53 53 52 52 53 57 60 62 63 64 64 64 64 65 65 66 66 65 64 64 63 63 63 64 64 65 66 66 67 68 69 71 73 74 74 73 72 70 69 68 68 69 70 70 71 72 74 75 76 76 76 77 76
44 46 50 54 56 56 57 59 61 63 62 62 63 65 68 70 71 73 74 72 69 67 65 58 50 46 50 51 48 45 46 49 52 51 49 47 47 48 51 53 55 57 58 58 59 60 62 62 63 64 65 66 66 66 66 66 67 67 68 68 68 68 68 69 71 73 76 77 77 77 75 75 74 73 72 72 73 73 73 73 74 75 76 77 77 77
46 46 48 52 55 55 57 58 59 61 62 63 64 66 69 72 73 73 72 66 58 56 55 50 46 45 44 40 34 31 30 33 38 39 37 39 41 42 43 45 47 48 50 51 52 53 55 57 58 59 61 62 63 65 66 67 67 68 68 70 71 71 70 70 70 71 73 76 79 79 78 77 77 77 77 76 76 76 75 75 75 76 77 77 78 78
48 46 47 49 52 54 56 57 60 63 65 66 68 70 71 73 73 71 70 64 54 51 51 49 49 47 43 40 39 38 39 36 35 37 41 45 47 47 48 48 49 50 51 52 54 55 56 58 59 60 62 63 65 65 66 66 66 66 65 66 68 71 73 74 73 72 71 72 75 79 81 81 80 79 79 80 80 79 79 78 78 78 78 78 78 79
50 47 47 49 52 53 54 55 57 61 64 68 70 73 75 75 74 71 67 62 53 50 51 50 50 50 50 51 52 54 57 54 51 53 56 58 58 58 58 57 56 56 57 58 59 61 63 64 65 66 67 68 70 70 70 70 69 68 67 66 66 67 69 72 75 75 74 73 73 75 79 82 84 84 83 83 82 83 82 82 82 81 81 81 80 80
51 50 48 50 52 53 54 55 56 57 61 65 69 72 76 78 79 75 66 57 52 51 52 52 52 55 58 61 61 61 62 63 65 67 68 68 68 67 68 67 67 66 65 66 65 66 68 70 73 74 75 76 76 76 76 76 76 74 73 71 70 69 69 70 73 75 76 77 77 77 77 79 83 85 87 88 87 86 85 85 85 85 85 84 84 84
51 52 51 50 52 54 56 58 59 60 60 63 67 70 75 78 77 74 64 53 51 53 55 55 55 56 59 61 62 64 64 65 68 70 71 71 71 72 73 74 75 74 74 74 73 73 75 78 81 83 85 85 86 85 84 84 84 83 82 80 78 78 77 76 77 78 79 80 81 82 82 82 82 83 85 88 90 91 90 89 88 88 88 87 87 87
49 52 53 53 53 55 57 60 62 64 66 68 70 73 76 78 75 71 62 51 48 51 53 55 55 53 53 54 56 58 59 61 63 66 68 70 72 73 74 76 78 79 80 80 81 82 83 85 88 91 93 93 92 91 91 91 91 91 91 90 89 88 88 87 86 87 87 88 87 87 87 87 87 86 86 87 89 91 92 93 93 92 91 90 89 89
51 52 54 55 55 55 57 59 61 64 67 70 73 76 78 79 74 67 61 53 49 50 50 52 55 52 50 51 53 54 56 57 59 61 63 65 68 71 73 75 77 78 80 81 82 82 83 84 85 88 90 91 91 93 94 95 96 96 97 97 98 98 98 97 96 95 95 95 95 93 92 92 93 92 91 90 90 90 91 92 94 95 95 93 92 91
53 53 54 54 54 54 56 59 61 64 66 68 72 75 78 77 70 62 58 56 54 52 49 50 53 51 48 49 52 53 55 56 57 58 59 61 63 65 67 69 71 73 74 75 75 76 76 76 77 78 80 83 86 88 91 93 96 98 100 101 102 104 104 105 105 104 103 102 101 99 97 95 95 95 95 94 93 92 92 91 92 94 96 96 95 93
53 55 55 54 53 52 53 56 59 62 66 69 72 76 76 74 67 59 55 54 54 53 50 51 53 50 47 48 50 51 53 54 55 57 58 59 59 61 62 63 64 66 67 67 67 68 68 68 68 70 73 75 78 80 83 86 89 92 95 98 101 103 105 107 109 110 110 110 109 108 106 103 101 99 97 95 94 93 93 93 93 93 94 95 96 95
54 55 56 57 57 56 55 57 59 61 65 69 72 75 75 73 68 61 55 53 53 52 51 52 54 51 48 47 48 48 50 51 52 55 57 58 59 59 59 59 59 60 60 60 61 60 60 61 62 64 66 67 69 70 73 75 78 82 86 89 93 96 99 102 105 107 109 111 112 112 111 110 108 107 105 103 101 99 96 95 94 94 94 94 95 95
54 55 56 58 60 61 61 63 64 66 68 69 71 72 73 73 70 65 59 56 55 54 52 51 54 53 47 45 46 47 48 49 49 51 53 54 56 56 56 55 55 55 55 55 55 55 56 57 58 59 59 60 60 61 63 66 68 72 75 78 81 85 88 92 95 98 101 104 107 108 108 109 109 109 109 110 110 108 105 102 99 97 96 95 94 95
53 53 54 55 57 59 60 61 63 66 68 69 70 71 72 73 72 68 63 59 57 56 54 51 54 54 48 45 46 45 46 48 48 49 50 51 52 52 52 52 53 53 53 53 53 53 54 55 55 55 55 55 55 56 57 59 60 63 65 67 69 72 74 78 81 84 88 92 96 99 102 104 104 105 105 107 108 109 109 107 105 103 100 98 96 95
52 52 52 51 52 55 57 59 61 64 67 67 69 70 72 73 73 71 65 61 57 56 56 54 53 52 50 48 48 47 47 48 48 49 50 50 50 50 51 51 52 52 51 51 51 52 52 52 52 53 53 53 54 54 54 55 55 57 58 59 60 61 63 65 68 71 73 77 81 86 90 95 98 100 101 102 103 104 105 106 106 105 104 102 100 97
51 51 51 50 50 53 55 58 60 62 64 65 67 69 71 72 73 71 66 62 59 57 59 58 54 52 52 52 50 48 48 48 48 49 49 49 49 49 50 51 51 50 49 49 50 50 50 51 51 52 52 52 52 53 53 53 54 54 54 54 54 55 56 57 59 61 63 65 68 72 77 81 86 90 94 96 98 99 101 102 103 104 104 103 102 100
52 51 51 51 52 53 55 57 60 61 62 64 66 68 70 70 71 70 66 63 61 60 60 59 55 52 52 53 52 50 50 50 49 48 48 47 47 48 49 49 48 48 48 48 49 49 50 50 50 51 51 51 51 52 52 52 52 53 52 52 51 50 50 51 52 54 55 57 59 61 64 67 72 77 82 86 90 93 96 98 100 101 102 102 101 100
52 52 53 54 54 54 56 57 59 61 61 62 65 67 68 68 68 68 65 63 64 64 61 59 56 53 51 52 53 52 52 52 51 50 48 47 47 47 48 48 47 48 48 48 49 49 50 50 50 50 50 49 50 51 51 51 51 52 52 51 50 48 47 47 48 49 50 51 53 54 56 58 61 65 69 73 78 83 87 91 94 97 98 99 99 99
53 54 55 57 57 56 57 57 58 59 60 62 64 65 66 66 67 66 64 63 65 66 63 61 59 57 54 53 53 53 54 54 53 53 51 50 49 50 49 49 48 48 49 49 49 49 49 49 50 50 49 49 49 50 50 50 50 50 50 49 48 48 47 46 47 47 47 47 48 50 51 52 54 56 58 61 65 70 75 81 85 89 91 93 95 96
55 56 57 59 59 58 58 58 59 60 61 62 63 64 65 66 67 66 63 62 64 65 64 63 61 60 58 56 55 55 54 54 55 55 54 53 53 52 51 50 49 48 48 49 49 49 49 49 48 49 48 48 49 49 49 49 49 48 48 47 46 46 46 45 45 46 46 46 46 46 47 48 49 50 51 52 54 58 62 67 72 77 81 85 88 91
56 58 58 59 60 60 59 59 60 61 62 63 63 64 66 66 67 66 63 62 65 65 63 62 60 59 59 58 58 58 57 56 56 55 54 55 55 55 53 52 51 49 48 48 48 48 49 49 48 48 48 48 49 49 49 48 48 47 47 47 46 45 45 44 44 44 44 44 43 44 44 44 45 46 46 46 47 49 51 54 58 64 68 73 78 81
56 58 58 59 60 61 61 62 62 62 63 64 65 66 67 67 67 67 62 60 64 65 63 63 61 59 59 59 59 60 59 59 57 54 53 55 56 56 54 53 52 51 49 49 49 48 49 49 48 47 47 48 49 48 48 48 48 47 46 46 45 45 44 44 43 43 43 42 41 41 41 41 42 42 42 42 43 43 43 45 47 50 53 59 65 71
56 58 59 59 61 62 63 63 64 64 64 66 67 67 68 68 68 68 63 59 62 65 64 64 62 60 60 60 60 60 60 59 57 55 55 56 56 55 55 54 52 51 50 49 49 49 49 49 49 48 47 48 48 48 48 47 47 46 46 45 45 44 44 43 43 42 42 41 40 39 38 38 38 38 38 39 39 39 38 38 38 39 41 46 52 58
56 58 59 60 62 64 64 64 65 65 66 67 67 67 68 68 68 70 69 65 64 65 65 64 62 60 60 60 60 60 60 59 57 55 56 58 57 56 55 54 53 52 51 50 49 49 49 48 48 48 48 47 48 48 48 47 47 46 45 44 44 43 43 42 42 41 40 39 38 37 36 35 35 35 35 35 34 34 34 34 32 32 34 36 40 45
56 57 59 60 62 64 66 66 67 68 68 68 68 68 69 69 68 70 70 68 66 65 65 65 64 62 61 60 60 60 61 61 59 57 57 58 57 57 56 54 53 52 52 51 50 49 48 48 47 48 48 48 48 48 47 47 46 46 45 44 43 42 42 42 41 40 39 37 36 35 34 33 32 32 31 31 30 30 29 29 29 28 29 29 30 33
56 56 58 59 61 63 65 66 67 68 69 69 69 68 69 69 68 69 69 68 68 68 67 67 66 64 64 62 61 62 63 63 63 61 61 60 58 58 57 55 53 52 51 51 51 50 49 48 47 47 47 48 47 47 46 46 45 45 44 43 43 42 42 41 40 39 38 36 34 33 33 32 31 29 28 27 26 26 25 25 24 24 24 24 24 25
55 56 57 59 61 62 63 64 65 66 68 70 69 67 68 68 69 70 70 69 68 67 67 67 67 66 66 65 64 63 64 66 66 65 65 63 61 59 58 56 55 53 51 50 49 50 49 48 47 46 46 47 47 46 45 44 43 44 44 43 42 41 41 41 40 39 37 35 33 32 32 31 30 27 25 24 23 22 22 21 20 19 19 18 18 19
54 55 56 58 60 61 61 62 63 64 67 69 69 68 68 69 69 70 70 69 68 67 67 68 68 68 68 67 66 65 65 66 68 67 66 66 64 61 59 57 56 54 52 51 50 49 48 47 47 46 46 46 46 46 45 43 42 42 42 43 42 41 40 40 39 38 37 34 32 30 30 30 28 25 23 22 20 19 19 18 16 15 14 14 14 14
54 54 55 57 59 60 61 61 62 63 65 67 68 69 69 70 70 69 69 69 70 70 69 68 69 69 69 68 68 67 66 66 67 68 67 66 65 63 61 59 57 55 53 52 51 50 49 47 46 46 45 45 45 45 44 43 41 41 41 41 41 40 40 39 38 37 36 33 31 29 28 27 26 24 22 20 18 17 16 16 15 14 13 12 11 11
54 55 55 56 58 59 60 62 62 63 65 67 68 69 70 70 70 70 70 70 70 71 70 70 69 69 70 69 69 68 67 66 66 67 67 66 65 64 62 61 59 57 55 53 52 51 50 48 46 45 45 45 45 44 43 42 41 40 40 40 40 39 39 38 37 36 35 33 30 28 27 26 24 22 20 18 17 16 15 15 14 14 13 12 12 12
55 56 56 57 58 59 60 60 60 60 63 66 67 68 70 71 71 72 72 71 71 71 71 71 70 70 70 70 70 70 69 68 67 67 67 66 65 64 62 61 59 58 57 55 54 52 51 49 48 46 44 44 44 43 43 42 40 39 39 39 38 38 37 36 36 36 34 32 30 28 26 25 23 22 20 18 16 15 15 15 15 15 14 13 13 13
54 56 56 56 57 58 58 59 59 59 61 64 66 68 69 71 72 73 73 73 72 72 72 72 72 71 71 71 71 71 70 69 68 67 68 68 67 65 64 62 60 59 58 57 56 54 52 51 49 47 45 44 43 42 42 41 41 39 38 37 37 36 35 34 34 34 34 32 30 28 26 24 23 21 19 18 17 15 15 15 16 16 15 15 14 15
54 56 57 57 57 58 59 60 60 60 61 64 66 68 70 71 71 73 73 74 73 73 73 73 73 73 72 72 73 73 72 71 71 69 69 69 69 68 67 64 62 60 59 58 57 56 54 52 50 48 46 45 44 42 41 41 41 39 37 36 35 35 34 33 32 32 33 31 30 28 25 23 22 20 19 17 17 16 15 16 16 16 16 16 15 16
55 57 58 58 59 60 60 61 61 61 61 63 65 66 68 69 70 71 73 74 74 73 73 74 74 73 73 73 74 74 74 74 74 73 71 71 72 72 71 69 66 63 61 59 58 56 54 52 50 49 47 46 44 42 41 41 40 39 38 36 35 34 33 32 30 30 31 31 29 28 26 23 21 20 19 18 17 17 17 16 17 17 17 17 16 16
56 58 59 59 59 60 61 62 63 62 62 64 65 66 66 68 68 69 71 73 74 73 73 74 74 74 73 73 73 75 75 75 75 75 74 73 74 75 74 73 70 67 64 61 58 56 54 52 50 49 47 46 44 43 41 40 40 39 38 37 36 34 33 32 30 30 29 29 29 28 26 24 22 21 20 20 19 19 18 18 18 18 18 17 17 17
57 58 60 61 61 61 62 63 63 62 63 64 65 66 67 69 69 69 70 72 73 73 73 73 74 74 74 73 73 75 75 75 76 77 76 76 76 76 76 75 73 70 66 62 58 55 53 51 50 48 47 45 44 42 41 40 39 38 37 36 36 35 34 32 31 30 29 28 28 28 27 25 23 22 22 22 22 21 21 20 19 19 19 18 17 17
58 59 61 62 63 62 63 63 63 64 64 64 65 66 67 69 69 69 69 71 72 72 73 73 73 73 73 73 74 74 75 75 76 77 78 77 77 77 78 77 76 72 67 61 57 54 53 51 49 47 46 45 43 42 41 40 39 38 37 36 36 36 34 33 31 31 30 28 27 27 27 26 24 24 24 23 23 23 23 22 20 20 19 18 18 17
58 59 60 62 63 63 63 64 64 65 66 66 65 65 66 67 68 68 69 70 72 72 73 74 73 72 72 72 73 74 75 76 77 78 78 78 77 77 78 78 77 73 67 60 56 54 52 51 49 48 46 44 43 41 40 40 39 38 37 36 36 36 35 34 32 31 30 29 28 27 26 26 25 25 25 25 24 24 24 23 22 20 19 18 18 18
Wind_Direction
299 299 301 302 303 303 304 304 305 305 304 303 302 301 301 300 299 299 299 298 297 296 296 295 294 295 294 293 292 291 291 290 289 288 287 286 285 283 281 278 277 275 274 272 271 270 269 269 268 267 267 267 266 266 266 266 267 267 266 266 265 264 264 263 262 261 260 259 258 258 258 259 259 259 260 259 257 256 255 255 254 254 252 252 254 255
303 304 304 305 305 305 305 306 306 306 305 304 302 301 300 299 299 299 299 298 298 296 297 296 296 296 295 294 293 292 292 291 290 289 288 287 285 283 281 279 277 276 274 272 270 269 268 267 267 266 265 265 264 264 264 263 263 264 265 264 264 264 263 262 261 260 259 258 257 257 256 257 258 257 257 258 257 255 254 253 253 253 253 253 254 255
308 307 307 307 308 308 308 308 307 306 305 305 304 303 302 301 300 299 298 298 298 297 297 296 295 295 293 292 292 292 291 291 290 289 287 286 284 283 281 280 278 277 275 273 271 269 268 267 266 266 265 264 263 263 262 262 261 261 261 262 262 262 262 261 260 259 259 258 257 256 255 255 255 256 256 256 256 256 255 253 252 252 252 253 254 254
309 309 309 309 308 308 307 306 306 306 306 306 305 304 303 303 302 301 299 297 297 298 300 298 296 295 294 294 293 293 292 290 289 287 286 285 284 283 282 281 279 277 276 274 272 271 269 267 266 265 264 263 262 262 261 261 261 260 259 259 259 259 259 259 259 258 257 257 256 255 255 254 254 254 255 256 256 255 255 255 254 252 252 252 252 253
311 311 311 311 310 309 308 307 306 305 304 305 304 304 304 304 304 304 303 300 298 299 301 300 298 295 295 295 294 293 291 290 288 287 286 286 285 284 283 282 280 279 277 275 274 272 270 268 267 265 264 263 262 261 260 259 259 259 259 259 258 257 257 256 256 256 256 255 254 254 254 254 254 253 253 254 254 254 254 254 254 253 252 252 252 252
312 312 312 311 310 309 307 306 305 304 304 304 305 306 307 307 306 306 306 305 303 301 301 301 300 298 297 296 294 292 291 290 288 287 287 286 285 284 283 282 281 279 278 276 274 273 271 269 267 266 264 263 262 261 260 260 259 258 258 258 258 257 256 255 254 254 254 254 253 252 252 252 253 252 252 252 253 254 253 252 252 252 252 251 251 251
313 313 312 311 310 309 309 309 308 308 308 308 308 308 309 309 309 308 307 306 305 304 302 302 302 300 298 296 294 292 290 289 287 286 285 284 283 282 281 280 279 278 277 275 274 272 271 269 268 266 265 264 263 262 261 260 259 259 258 258 257 257 256 254 253 253 253 253 252 252 251 251 251 251 251 251 251 252 252 251 250 249 249 250 250 250
314 313 312 311 311 312 313 313 313 313 313 312 312 311 310 310 310 309 308 307 307 305 303 305 304 301 299 297 294 291 289 287 285 284 283 282 281 280 280 279 279 278 278 276 275 274 272 270 268 266 265 264 263 262 262 261 260 259 258 257 257 257 256 255 253 252 251 251 251 251 250 250 250 250 250 250 250 250 251 250 249 248 248 248 248 248
315 314 314 314 315 316 316 316 317 317 317 316 314 313 312 312 311 310 309 307 307 305 304 307 306 302 300 298 295 293 290 288 286 284 283 282 281 281 281 281 280 280 280 279 278 277 274 272 270 268 267 267 266 264 263 262 260 259 258 256 256 256 256 256 255 253 251 250 250 249 249 249 249 249 249 249 249 249 249 248 248 247 246 246 246 247
317 316 317 318 317 317 317 319 320 320 319 318 316 314 313 313 312 311 310 310 309 308 309 311 309 304 301 298 296 294 292 290 288 286 284 284 283 282 282 282 282 281 281 281 279 277 274 272 271 272 272 271 270 268 266 263 261 260 258 256 254 254 254 255 255 254 252 250 249 248 248 247 247 247 248 247 247 247 246 246 247 246 245 245 245 245
319 320 321 320 319 319 319 321 322 321 321 319 317 316 315 314 314 314 314 315 314 313 315 316 312 307 301 296 294 293 290 288 287 285 285 284 284 284 283 281 280 280 280 279 277 275 273 271 271 273 274 274 272 270 267 265 263 260 258 256 254 252 251 252 253 253 252 251 249 248 247 247 246 246 246 246 246 246 245 245 245 245 244 244 244 243
325 326 324 324 323 322 321 321 322 322 322 322 321 321 320 319 318 317 317 317 317 317 318 317 312 305 295 290 288 285 283 281 281 281 281 281 280 280 279 277 275 276 276 276 275 273 272 271 271 272 273 273 271 269 267 266 264 262 260 257 254 252 251 250 251 251 251 251 249 248 247 247 246 246 246 246 245 245 244 244 244 243 243 243 243 242
330 329 327 326 326 324 323 322 322 322 323 324 325 325 324 324 323 321 320 319 318 318 318 316 310 300 291 286 284 282 282 282 282 282 282 281 280 278 276 275 274 275 275 275 273 272 271 270 270 269 270 269 268 266 265 264 263 262 261 259 256 254 251 250 250 250 251 251 250 249 248 247 247 246 246 246 246 245 244 244 243 243 243 243 243 242
328 328 327 327 326 327 328 327 325 325 327 327 327 327 327 329 329 327 325 324 321 319 318 315 308 298 292 291 289 289 290 290 290 288 286 284 281 277 275 273 272 271 271 270 269 268 267 266 266 266 266 266 266 265 263 263 262 262 261 260 258 256 254 251 250 249 250 251 251 250 249 247 247 247 246 246 246 246 245 245 244 243 243 243 243 243
331 331 329 328 328 329 330 329 329 329 329 328 328 329 330 333 333 331 329 327 321 317 315 311 304 296 292 292 291 291 292 291 289 286 284 282 277 273 269 268 267 266 264 263 262 262 262 262 262 262 263 264 264 264 263 263 263 263 262 261 259 257 256 254 252 250 250 250 250 251 251 249 248 247 247 246 246 246 246 246 245 245 245 244 244 244
336 336 334 333 331 330 331 330 329 329 328 328 329 330 332 334 335 332 330 326 315 307 305 300 295 291 286 283 284 288 291 286 280 280 283 282 278 273 270 268 267 267 266 265 264 264 264 263 262 262 262 261 261 260 259 259 259 260 260 260 259 258 257 255 254 253 251 250 250 249 250 250 249 248 247 246 246 246 246 246 246 246 246 245 245 245
336 337 335 333 331 329 331 331 330 330 331 331 332 334 336 337 337 333 330 326 314 299 293 289 286 284 279 275 277 283 285 278 272 276 282 283 281 280 279 278 276 275 274 273 272 271 270 270 268 267 265 264 263 261 260 259 257 255 255 255 256 257 258 256 254 252 251 251 251 250 249 248 248 247 247 247 246 245 245 245 245 245 245 245 245 246
336 338 335 333 332 330 329 330 330 330 332 334 336 338 339 338 336 335 331 326 317 302 292 287 281 278 278 278 280 282 281 277 275 280 284 284 283 283 283 283 282 281 280 280 279 276 274 273 272 271 270 269 268 266 265 263 260 256 254 252 252 253 255 256 255 253 251 249 249 250 250 250 248 247 246 245 246 246 245 245 244 244 244 244 244 245
336 338 338 334 332 330 328 328 328 329 332 336 338 340 340 339 339 338 335 328 320 309 299 294 288 282 282 283 284 285 284 281 280 282 285 286 286 285 285 286 286 284 283 282 281 278 276 274 274 274 274 275 275 274 272 269 266 263 259 256 254 254 254 255 256 257 256 255 253 251 250 250 250 250 248 246 245 245 245 245 244 244 244 243 243 244
335 336 337 335 332 331 329 329 330 332 334 337 338 339 341 342 341 341 339 331 321 312 305 302 298 292 290 290 290 289 288 286 285 286 287 289 289 289 289 289 288 287 284 282 280 277 275 274 275 277 278 278 278 277 276 275 273 270 266 263 260 258 257 258 259 260 261 262 262 260 256 253 251 251 251 251 249 247 245 245 244 244 244 243 243 243
335 334 335 334 333 331 331 333 336 338 339 341 342 344 344 345 344 342 340 335 326 317 310 306 303 301 299 298 296 293 291 289 288 287 287 289 290 290 290 289 289 288 286 284 282 280 278 276 276 277 278 279 278 277 276 276 275 274 272 270 267 264 263 262 262 262 262 264 265 265 264 261 257 254 252 252 252 251 250 248 246 245 244 244 244 244
335 334 333 333 333 333 334 336 339 341 343 345 346 348 348 348 346 342 339 338 333 327 320 312 308 308 308 306 303 300 297 295 292 290 288 287 287 288 288 288 287 287 286 284 284 283 282 280 279 278 278 278 278 277 277 276 276 276 275 274 272 270 269 267 266 265 264 265 266 266 266 265 263 261 258 255 253 252 252 252 251 249 247 246 245 244
334 333 332 333 334 334 335 338 342 344 345 346 347 349 350 350 347 343 339 338 336 333 329 320 314 313 314 312 308 305 302 299 297 294 292 289 288 287 287 286 286 285 285 284 284 284 284 284 284 283 282 281 280 279 278 277 277 277 276 276 275 273 272 271 270 269 267 267 267 267 266 265 264 263 261 259 256 254 253 253 253 253 251 250 249 248
333 332 332 332 331 331 333 337 342 345 345 346 347 350 351 350 348 344 339 336 334 334 332 326 321 320 319 315 311 308 304 302 301 299 297 294 292 290 289 289 288 288 288 288 287 287 287 286 286 285 284 283 282 282 280 279 278 277 276 276 275 274 273 272 271 270 269 268 267 266 265 264 263 262 261 260 258 256 255 254 254 255 254 253 252 251
333 333 333 331 331 332 334 338 342 344 345 347 349 351 352 351 348 345 340 335 334 333 333 330 326 327 326 319 314 311 308 306 304 301 299 297 296 295 294 293 292 291 290 289 289 289 288 288 287 286 286 285 285 284 283 282 280 279 277 275 275 274 273 272 272 271 270 268 267 266 265 263 262 261 260 260 260 258 256 255 254 255 255 255 254 253
335 335 334 334 336 339 343 345 347 347 348 350 352 352 352 351 349 347 342 338 336 334 334 332 327 329 331 323 317 315 312 310 307 304 302 300 299 298 298 297 296 294 292 291 291 292 292 292 291 291 291 291 291 291 290 288 286 283 281 278 277 275 274 273 272 271 270 269 268 267 265 264 262 260 259 259 259 259 258 257 255 254 254 255 255 254
336 335 335 337 340 343 346 348 348 348 349 351 352 352 353 353 351 349 345 341 338 334 333 332 328 330 333 327 321 320 318 315 313 311 308 306 304 303 302 300 299 297 297 297 296 296 295 295 296 296 297 298 298 298 297 295 293 290 288 286 283 281 278 276 274 272 271 270 269 269 267 266 264 262 260 258 258 257 257 257 256 255 254 253 254 254
337 336 336 338 339 341 344 346 346 346 348 350 351 351 353 354 353 351 348 343 338 333 332 332 330 331 333 331 328 327 323 321 319 316 315 312 309 307 305 302 301 300 300 299 297 297 297 298 299 300 301 302 302 302 302 301 300 299 297 295 292 289 286 283 280 277 275 273 271 270 269 268 266 265 262 260 258 257 256 255 255 254 253 252 252 252
338 337 337 337 337 339 342 344 344 346 347 349 350 351 352 354 354 353 350 345 340 334 333 335 335 335 335 333 332 330 327 324 323 321 318 315 312 309 306 304 303 302 301 298 297 298 299 301 301 302 302 303 304 304 305 305 305 305 304 303 300 298 295 292 289 286 283 280 277 274 272 270 269 267 266 263 261 259 257 255 254 253 252 252 251 250
339 338 338 339 339 340 342 343 343 345 346 348 349 350 352 354 355 354 351 346 341 337 337 338 338 338 336 334 334 333 329 328 327 324 321 317 313 309 306 305 306 305 303 301 300 301 302 302 302 302 303 304 305 306 306 307 307 307 308 307 307 306 304 301 298 295 292 289 286 282 279 276 272 270 268 266 264 262 259 257 255 253 252 251 250 249
341 340 340 341 341 342 342 342 343 344 346 348 349 350 352 353 355 356 352 347 343 341 341 341 340 340 339 335 335 334 332 331 330 328 324 320 314 310 308 308 309 308 307 304 302 302 302 303 303 304 305 305 306 306 307 308 308 308 309 310 311 312 310 307 304 301 298 295 292 289 286 282 278 274 271 268 266 264 261 259 257 255 253 251 250 248
343 343 343 343 344 343 342 342 342 343 345 348 349 350 351 352 355 357 355 348 345 344 343 343 342 342 340 338 336 335 333 332 331 330 327 323 319 316 314 313 312 310 309 306 304 302 302 303 304 306 306 307 307 307 308 308 309 309 311 312 313 312 312 310 308 305 302 299 296 293 290 288 284 281 277 274 270 266 264 261 259 257 255 253 250 248
346 346 346 346 346 345 344 344 344 343 345 349 350 350 351 351 353 358 358 350 346 346 344 343 343 342 341 339 338 337 335 333 333 332 329 325 321 319 316 314 312 311 309 307 305 304 303 304 305 306 307 308 307 308 309 310 310 311 312 313 313 313 312 311 309 308 307 304 302 298 295 293 290 287 284 281 276 272 268 264 262 259 257 255 253 250
349 349 349 348 348 347 347 346 346 347 348 350 351 350 351 352 353 358 360 352 348 348 345 342 343 342 340 339 338 337 337 336 336 334 329 324 321 319 317 314 313 312 311 309 307 305 304 304 306 307 308 309 309 309 310 311 311 313 314 314 315 314 313 312 311 310 309 308 306 303 300 297 294 292 290 287 283 279 274 269 265 262 259 256 254 252
351 352 351 351 350 350 350 349 349 350 351 352 352 351 352 353 353 357 1 355 349 349 347 344 343 342 340 339 339 339 338 337 337 334 328 324 322 320 318 316 314 313 312 311 309 308 306 305 306 307 308 309 309 310 311 312 312 313 315 315 316 315 314 313 312 312 312 311 310 308 306 302 299 297 294 290 288 285 282 277 272 267 262 258 254 252
352 353 353 353 352 352 353 353 352 352 353 353 353 353 353 353 352 353 357 356 351 350 349 347 344 341 339 340 339 338 337 336 337 334 328 326 325 322 320 318 316 314 313 312 311 310 309 308 307 308 308 309 310 310 312 312 313 314 315 315 316 316 315 315 314 314 314 313 313 312 310 307 304 301 298 295 292 290 287 283 279 273 266 260 256 253
354 354 353 354 354 353 354 355 353 353 354 355 355 354 353 354 352 351 354 355 353 351 349 348 346 343 340 339 338 337 337 337 337 335 330 328 327 325 323 321 318 316 314 313 312 311 310 310 309 308 308 309 310 310 312 313 313 314 315 315 316 316 315 315 315 315 315 314 314 313 312 311 309 306 303 300 297 294 290 287 283 277 271 264 259 256
354 354 353 353 353 353 354 354 354 353 354 356 356 354 353 353 352 351 352 352 351 349 348 348 347 344 341 339 337 337 337 337 338 336 332 331 330 327 326 323 320 318 316 314 313 312 311 311 310 309 309 309 309 310 311 312 313 314 315 315 315 316 315 316 316 316 316 316 316 315 314 313 312 310 308 305 301 297 293 290 286 281 276 270 264 259
354 353 352 352 352 353 353 354 354 353 353 355 355 354 353 352 351 351 352 352 350 349 348 347 346 345 343 341 339 337 337 337 339 338 335 334 332 329 327 325 323 320 317 315 314 313 312 312 311 310 309 308 308 308 309 311 312 313 314 314 315 315 316 316 316 316 316 317 317 316 315 314 313 312 310 308 305 301 297 293 289 284 280 275 268 260
352 352 351 351 351 351 352 353 354 352 351 353 354 354 352 352 351 350 351 351 350 348 347 346 346 345 344 343 341 339 338 338 339 340 337 335 334 331 329 326 324 322 319 317 314 312 312 311 311 309 307 306 306 307 308 309 311 313 314 314 314 314 315 315 316 315 315 316 317 316 315 314 313 313 312 310 308 304 301 297 293 288 284 277 269 261
350 350 350 349 350 350 350 351 352 352 351 352 353 353 352 352 351 350 350 349 349 349 347 346 346 345 345 344 343 341 340 338 339 339 338 336 334 332 329 327 325 324 321 319 316 314 312 311 310 309 307 306 305 306 306 308 310 312 313 313 313 313 314 315 315 315 315 316 316 316 314 313 314 314 313 312 311 308 305 304 302 296 290 283 274 264
348 349 349 349 349 349 348 349 351 351 350 352 353 353 353 352 351 350 349 349 348 348 348 347 345 345 345 345 344 342 342 340 339 339 338 337 335 333 330 328 326 325 323 320 318 315 313 312 311 309 308 306 305 305 305 307 309 311 312 311 311 312 313 315 315 315 314 315 315 314 313 312 313 314 314 314 313 312 310 311 310 306 300 293 284 273
346 347 348 348 348 348 348 349 351 350 349 350 352 352 352 352 351 350 350 350 348 348 347 346 345 345 345 345 345 344 343 341 340 339 339 338 336 333 331 329 327 325 323 321 319 316 315 314 312 310 308 306 305 304 304 305 306 309 310 310 309 310 312 314 315 315 313 313 313 312 311 310 310 310 311 311 312 312 311 311 310 307 302 297 289 281
344 345 347 347 347 348 348 349 350 349 347 348 350 350 351 352 352 350 350 350 349 347 347 346 346 345 345 345 345 345 344 343 341 340 339 339 337 335 333 330 328 326 324 322 320 318 316 315 314 312 310 307 304 303 303 303 304 306 307 307 307 308 310 312 314 314 312 311 311 310 308 306 306 305 304 304 304 305 306 305 304 300 296 291 284 278
343 343 344 345 345 346 346 346 347 347 346 346 347 348 350 352 352 351 350 349 348 347 346 346 346 345 344 344 345 345 345 344 342 341 340 339 338 337 335 333 330 327 324 322 320 318 317 315 314 313 311 308 305 303 302 302 302 303 304 305 305 306 307 309 311 312 311 310 309 307 304 302 301 300 298 297 296 297 299 300 299 297 293 287 281 274
342 342 342 343 343 344 344 344 345 345 345 345 346 348 349 351 352 352 351 350 348 347 346 346 346 345 344 344 344 345 345 344 343 342 341 340 340 339 337 335 332 328 325 322 319 317 316 315 314 312 311 309 307 305 303 301 300 301 302 303 303 304 305 305 307 310 310 309 308 305 301 298 297 296 294 293 293 293 294 295 295 294 291 287 282 276
341 341 341 342 342 342 342 343 344 344 344 344 346 347 348 350 351 351 351 351 350 348 347 346 345 345 344 344 343 344 345 344 343 343 342 341 340 340 339 337 335 331 327 323 320 318 316 314 313 312 310 309 307 306 304 301 299 299 299 301 302 302 302 303 303 305 308 309 307 304 299 294 291 291 289 289 289 291 292 292 291 290 288 285 281 277
340 340 340 341 341 341 341 342 343 344 344 343 345 346 346 347 349 350 351 351 351 350 348 346 345 344 344 344 343 344 344 344 343 343 343 342 341 341 341 339 337 334 331 327 324 320 317 314 312 310 308 307 306 305 304 301 298 297 297 298 300 300 300 301 300 300 303 306 306 304 299 292 287 285 284 285 286 287 288 289 289 288 286 283 280 276
339 339 340 340 341 340 340 341 341 342 342 342 343 344 345 346 348 349 350 351 351 350 349 348 346 344 344 343 343 343 344 344 343 343 343 343 342 342 341 340 338 336 333 330 327 324 320 317 313 310 307 305 304 304 303 301 299 297 295 296 297 298 298 299 298 297 298 300 303 303 300 293 286 281 280 281 283 284 285 286 287 287 285 282 279 276
339 339 339 339 340 340 339 339 340 340 341 341 342 343 344 345 346 348 348 350 350 350 349 349 348 346 344 343 342 342 343 343 344 344 344 344 343 342 341 341 340 338 335 333 330 327 324 321 317 313 309 306 303 302 301 300 299 297 295 294 293 294 295 295 296 295 293 294 297 299 299 295 289 282 278 278 279 281 282 282 282 283 283 280 277 276
338 339 338 338 339 339 338 338 339 339 340 341 341 342 342 343 345 346 347 348 349 349 348 348 348 347 346 344 342 341 342 343 344 345 345 344 343 342 342 341 340 338 336 333 332 330 328 324 321 318 314 309 305 302 300 299 298 297 295 292 290 290 291 292 292 292 291 290 290 292 294 294 291 285 280 277 276 277 279 279 277 277 277 278 277 275